Theta_e
319 318 317 317 314 311 311 312 311 310 310 310 309 309 309 310 309 309 309 308 308 309 310 327 342 346 348 344 343 343 343 342 339 338 338 339 344 345 345 346 345 345 343 342
316 322 317 313 313 311 312 313 312 312 312 310 311 312 311 310 310 309 310 309 309 310 309 328 341 344 344 342 342 341 343 341 340 339 338 340 345 345 342 342 341 342 339 339
317 315 316 314 311 311 312 313 312 313 313 312 313 312 312 313 311 310 309 309 310 310 310 331 339 339 341 341 341 343 344 341 340 339 338 338 340 342 342 339 337 337 338 337
318 316 313 315 316 314 315 314 314 315 314 312 312 313 313 314 313 313 313 309 310 311 309 332 338 338 339 341 343 341 341 340 340 338 336 339 338 336 335 337 337 339 336 335
323 318 317 316 318 316 316 315 314 315 313 312 312 312 312 314 315 314 313 313 312 311 310 330 338 339 339 339 338 338 338 338 336 335 336 338 335 337 337 336 340 339 337 338
322 318 318 318 318 317 316 314 314 313 312 311 312 312 314 315 316 317 316 315 314 312 310 329 338 341 340 340 337 335 336 336 335 335 336 338 341 342 342 342 343 340 341 341
324 323 319 318 319 319 316 313 312 312 312 314 311 314 314 315 316 318 318 316 314 311 319 337 341 340 343 342 339 338 338 337 338 337 340 343 343 340 342 341 340 336 337 334
328 329 324 320 320 319 318 314 311 313 314 312 314 315 314 322 326 325 326 326 322 310 330 339 339 342 334 329 332 337 337 337 338 338 339 337 335 335 333 331 330 329 326 325
326 326 323 323 321 319 320 317 311 315 318 314 315 316 325 330 331 332 336 337 337 336 337 336 331 327 326 325 326 329 327 327 330 329 328 326 325 324 322 322 323 322 321 320
324 327 323 323 323 321 315 313 314 316 318 321 321 325 326 331 331 332 333 332 332 331 330 328 327 325 325 324 324 324 323 322 322 321 320 320 319 319 318 318 318 317 317 317
323 324 326 323 325 325 320 316 316 315 318 320 325 329 326 330 330 332 331 329 328 328 327 325 322 320 318 319 319 319 319 319 319 318 318 317 317 317 317 317 316 316 315 315
323 325 326 324 320 319 319 315 317 316 318 319 319 326 326 328 330 330 330 328 326 324 321 317 315 315 314 313 313 314 315 315 315 315 314 314 314 313 313 313 314 314 314 315
322 326 326 325 323 320 321 320 314 314 317 320 324 326 324 329 329 328 328 325 322 319 316 315 314 313 313 312 311 311 312 312 312 312 312 312 312 312 312 312 312 312 313 314
322 327 320 322 323 320 322 321 318 317 318 322 319 327 330 329 328 329 326 324 322 319 319 316 315 314 311 310 310 310 310 311 310 311 310 309 308 308 307 307 307 307 307 307
321 327 321 323 322 322 321 322 320 319 318 320 325 328 329 329 328 328 325 325 323 320 318 316 314 312 309 308 307 307 307 308 308 307 306 305 305 305 305 305 305 304 304 304
319 326 323 327 326 327 322 321 325 320 320 322 326 328 323 326 325 324 324 322 319 315 314 313 310 308 306 305 304 304 304 303 304 303 302 302 302 301 301 301 301 301 301 301
320 324 323 328 327 327 328 325 326 325 325 325 328 326 327 327 327 325 325 318 315 314 310 307 305 303 302 302 301 301 301 301 300 299 299 298 298 298 298 298 299 299 300 300
321 322 319 323 326 329 324 324 326 327 327 325 326 327 327 323 318 316 316 315 312 308 305 303 300 300 299 299 299 299 298 298 297 297 297 296 296 296 296 297 298 298 298 299
320 324 323 321 323 328 327 326 328 327 327 325 324 322 316 315 314 313 311 309 306 303 301 300 299 297 297 297 296 296 295 295 295 294 294 294 294 295 295 296 297 297 297 298
323 322 321 322 324 330 327 325 325 325 331 322 319 319 318 320 320 314 308 306 304 302 300 299 297 296 295 295 295 295 294 294 293 293 293 294 294 294 295 296 296 296 297 297
327 325 324 323 326 327 326 324 325 325 325 319 319 319 320 315 313 309 307 305 303 301 299 297 295 294 295 296 296 294 293 293 292 292 292 293 293 294 295 295 295 296 296 297
326 326 322 322 323 330 323 325 325 320 319 318 315 311 310 309 308 307 306 304 303 300 298 296 295 294 294 294 295 293 293 294 293 292 292 292 293 294 294 294 295 295 296 297
325 322 320 321 322 319 320 319 318 317 314 312 311 309 308 307 307 306 305 304 302 300 298 297 295 295 294 293 294 293 294 293 292 292 292 292 293 293 293 293 294 295 295 296
325 321 322 320 319 317 315 314 313 313 312 311 309 307 306 305 304 303 303 302 300 299 297 296 295 294 294 293 293 294 294 293 291 291 291 292 292 292 292 293 293 294 295 295
323 321 318 317 314 312 311 310 309 309 307 306 305 304 303 302 301 299 298 297 296 295 296 295 294 293 293 293 294 294 294 293 291 291 291 291 291 291 291 292 293 294 294 296
321 319 321 320 314 312 309 308 308 306 304 303 303 301 300 300 299 297 296 295 295 294 294 294 293 293 293 292 292 293 294 292 291 291 290 290 291 291 291 291 292 293 293 294
Wind_Speed
16 11 22 24 23 7 8 6 6 5 8 8 8 7 10 10 8 9 8 9 9 10 6 25 23 20 25 25 27 36 37 38 35 30 21 16 12 14 18 19 20 18 15 21
7 26 13 12 18 12 8 7 6 3 5 4 7 9 9 10 9 8 13 9 10 6 5 8 19 25 27 30 28 32 38 38 33 32 29 20 25 20 17 20 17 16 19 21
15 5 19 15 19 21 19 16 6 4 1 3 3 7 8 8 8 10 9 10 7 10 8 10 13 22 24 26 31 38 41 38 36 33 28 16 17 19 21 19 19 19 18 16
15 18 21 22 21 18 21 11 9 6 3 3 5 5 6 8 11 11 14 9 10 9 7 9 13 17 26 32 36 32 33 36 36 31 31 24 17 13 20 24 21 17 15 12
15 18 20 21 18 14 8 10 7 5 4 1 7 1 8 2 7 8 9 9 11 11 12 16 18 26 30 26 28 32 32 35 34 35 31 24 19 21 16 17 18 18 15 10
19 9 17 17 14 14 5 6 5 3 4 5 11 7 5 4 6 4 5 8 11 9 10 11 12 19 21 22 23 25 29 29 31 30 25 24 18 12 12 11 12 12 13 12
14 22 13 16 13 13 9 8 2 3 4 8 8 6 8 5 5 2 6 9 10 9 13 14 14 11 17 19 21 21 22 14 15 16 15 14 11 12 12 11 13 12 13 13
11 12 25 14 15 10 9 10 5 7 5 4 9 6 4 3 5 6 9 7 12 6 10 13 12 12 15 20 23 23 20 16 13 10 7 4 3 8 13 13 14 14 13 13
8 9 4 21 9 17 9 12 10 3 2 5 3 3 0 8 13 15 15 19 17 15 14 14 14 18 23 25 27 30 27 24 19 17 18 19 19 19 19 17 16 13 9 5
3 4 8 16 17 11 10 10 7 1 3 3 2 3 3 4 10 14 17 17 16 17 17 16 16 21 22 23 30 30 26 27 23 21 21 20 19 17 14 11 9 5 2 1
1 2 6 13 7 17 9 9 4 6 4 4 4 1 1 7 12 16 14 16 18 19 20 17 14 22 25 25 23 25 29 25 23 19 18 15 15 12 11 9 7 4 4 6
2 3 5 8 8 13 2 6 9 4 5 2 5 2 5 8 16 17 16 17 19 19 17 17 16 24 26 26 25 21 21 23 23 21 20 17 14 11 9 7 6 5 6 7
5 1 4 4 3 4 5 5 7 4 3 4 5 3 4 7 14 17 21 18 18 19 19 17 18 17 23 22 24 22 20 21 19 17 15 15 13 11 10 8 8 8 7 7
15 2 4 4 4 5 10 8 8 6 5 6 4 7 9 10 15 17 16 18 19 19 18 19 17 15 18 17 17 17 15 15 15 16 16 15 13 11 9 8 8 8 10 11
3 3 4 3 6 6 9 8 7 4 4 8 7 9 16 16 17 15 14 14 14 13 11 14 16 14 17 14 18 16 15 14 14 15 14 13 10 10 11 12 13 15 15 16
2 3 5 4 9 7 6 6 8 5 5 6 12 8 9 12 11 11 13 14 14 16 16 17 15 16 13 14 14 14 14 14 12 13 12 12 13 14 15 15 15 16 16 17
3 3 3 2 4 5 3 5 3 4 3 11 6 8 16 16 15 15 11 14 15 14 15 14 12 14 15 14 13 17 14 12 14 14 15 16 17 17 16 15 14 16 18 18
3 4 2 4 7 3 2 3 2 10 6 13 14 15 15 16 12 12 13 16 15 15 13 11 12 16 18 16 13 13 13 14 14 16 17 18 18 18 19 16 16 18 19 19
5 0 3 5 4 1 0 1 6 6 5 6 17 18 21 22 24 15 12 14 14 15 12 14 16 18 19 16 13 18 18 19 18 19 19 19 18 18 18 18 19 20 20 20
5 3 3 3 5 3 3 2 6 7 4 7 21 22 24 19 10 5 12 16 15 17 16 16 17 19 18 17 19 23 24 24 23 20 18 18 16 17 17 17 18 18 18 18
2 2 3 4 4 1 3 5 1 6 7 15 15 20 16 6 9 16 15 14 18 17 18 17 16 20 21 19 17 20 18 18 16 16 19 17 16 16 14 15 17 16 16 15
2 3 2 3 4 3 3 4 2 4 17 18 13 18 22 23 20 16 16 15 14 16 16 15 22 21 17 17 19 18 20 18 20 18 17 16 15 13 12 14 14 15 14 14
2 3 4 3 1 4 4 9 9 19 19 16 21 20 24 22 18 16 13 14 13 16 16 18 19 17 16 17 15 13 14 19 18 14 13 13 12 13 13 14 14 14 14 13
4 1 6 5 8 12 19 17 17 19 23 18 20 21 20 21 17 14 13 12 12 14 15 18 16 14 11 11 10 11 12 18 14 13 13 13 14 16 15 14 13 13 13 14
2 3 9 17 15 20 16 19 22 23 23 23 19 18 20 19 15 14 10 9 13 16 18 16 14 11 10 12 12 11 11 18 14 15 15 16 16 16 17 16 14 13 14 14
4 7 6 6 6 17 13 17 23 23 20 20 22 17 15 19 16 13 10 16 17 17 17 15 13 11 9 12 10 9 10 17 15 15 17 17 17 18 20 18 18 13 14 13
Wind_Direction
184 199 208 198 208 219 191 208 191 186 224 189 233 240 236 255 250 264 227 223 230 238 264 185 187 181 170 177 183 196 202 205 202 200 197 205 190 183 192 197 205 207 212 226
164 219 205 208 202 219 236 225 208 207 243 170 259 264 240 242 247 218 240 240 233 231 140 162 165 172 175 178 185 194 204 205 209 207 203 199 197 204 199 200 205 222 223 220
198 222 191 200 193 202 224 224 169 167 22 302 354 300 287 268 237 241 243 230 227 218 193 164 169 178 173 180 189 199 204 206 208 207 202 194 210 222 216 215 212 220 226 230
219 231 192 199 207 193 216 192 186 180 157 220 143 274 272 272 259 228 236 216 222 212 150 172 172 172 180 192 196 201 203 204 207 208 197 199 200 203 224 232 223 215 212 219
206 183 212 206 208 193 203 168 170 168 173 339 247 232 270 273 269 228 223 226 225 215 171 177 182 180 186 186 190 195 199 208 205 200 206 205 203 203 196 204 200 203 206 207
215 191 202 216 209 198 123 136 183 158 128 247 230 167 276 250 221 203 216 225 225 200 172 169 164 161 168 180 183 188 193 199 203 204 203 206 215 203 206 204 191 189 204 202
211 218 213 178 216 198 166 139 180 166 182 227 152 162 230 272 287 244 249 256 234 160 142 141 145 142 150 154 159 162 169 165 181 200 216 228 224 209 203 194 181 172 160 156
200 203 220 199 198 182 179 169 163 177 171 194 119 201 234 5 12 49 52 53 43 62 126 140 136 131 113 96 109 122 127 125 159 167 170 193 158 130 135 141 145 142 142 142
181 215 189 228 197 176 173 199 188 82 133 110 172 176 271 39 38 48 57 66 64 67 67 74 81 90 89 90 104 118 115 107 107 111 109 105 103 108 107 108 122 132 140 146
196 150 207 212 208 219 170 161 181 164 206 137 146 123 193 8 74 79 76 80 80 78 77 81 81 76 81 93 108 109 105 108 110 108 105 102 100 100 101 104 103 108 106 349
187 78 164 257 195 197 200 178 90 139 153 164 127 280 238 126 104 95 90 90 91 89 87 77 72 66 65 68 80 98 106 108 108 103 98 94 88 86 88 80 71 44 5 338
244 124 132 186 137 185 240 182 176 138 201 208 128 202 99 128 118 105 98 98 96 89 88 85 77 73 69 66 72 81 96 99 100 100 97 91 85 73 64 49 25 354 334 324
192 225 117 61 25 160 174 193 150 152 138 165 122 200 160 142 127 119 117 110 106 104 95 87 84 81 77 72 79 86 87 91 90 91 90 83 77 72 63 49 31 14 359 340
173 173 149 164 118 128 145 151 147 136 126 154 170 133 150 147 143 135 129 126 127 122 125 120 109 91 69 80 87 80 77 84 89 90 85 79 72 65 52 29 7 349 338 323
89 248 187 192 164 128 137 139 125 123 166 154 169 153 170 161 152 137 129 125 120 115 117 115 109 100 120 102 85 81 76 78 83 78 70 59 42 22 4 348 339 332 327 321
80 252 160 84 78 74 150 151 123 154 129 58 124 82 125 138 132 130 136 127 119 113 106 94 98 105 98 95 93 89 78 68 64 60 46 22 6 353 348 341 338 333 330 327
165 262 135 128 72 87 79 196 113 119 151 141 135 159 138 141 149 148 138 119 112 105 93 88 90 85 77 72 69 67 60 48 38 31 19 7 357 349 350 347 344 335 332 332
182 224 65 135 99 143 289 306 95 93 54 109 97 126 118 115 101 102 115 115 108 96 95 93 84 76 74 73 73 69 50 40 30 22 12 2 357 349 346 345 345 339 334 331
192 283 94 127 94 337 154 187 163 142 37 105 117 114 114 109 90 61 91 101 101 103 102 100 97 91 79 69 65 61 51 41 29 17 5 356 350 346 343 342 338 336 333 328
210 168 142 114 107 163 229 263 202 111 99 136 127 135 136 138 112 124 113 102 100 98 99 97 86 80 78 65 60 52 40 32 18 4 353 343 345 343 344 341 329 324 324 318
134 30 92 85 99 166 232 261 278 98 186 144 140 138 132 111 115 126 113 102 104 108 102 98 95 77 64 52 50 47 33 20 355 347 353 351 348 344 335 329 333 323 324 330
90 118 97 90 98 184 192 104 128 158 128 134 119 112 109 110 112 115 113 112 113 113 111 99 83 75 69 54 47 44 28 4 356 0 353 358 356 354 341 339 337 341 342 335
166 187 123 68 120 286 36 108 101 121 114 116 111 115 116 116 118 118 118 118 117 108 94 95 90 79 64 53 54 59 25 8 7 6 358 4 2 359 354 346 348 346 349 339
112 211 104 71 46 79 95 94 101 102 105 110 109 113 114 115 113 112 112 111 110 118 121 116 100 88 79 57 65 55 27 11 15 13 11 13 9 359 3 5 2 360 351 344
8 87 98 95 100 86 77 96 106 101 101 100 98 110 113 110 104 106 102 102 107 110 113 106 98 89 74 50 59 45 32 19 15 20 19 17 13 8 3 9 15 19 15 18
6 144 118 120 93 107 105 103 108 105 108 111 107 98 95 102 107 109 94 90 96 105 110 96 87 78 73 56 43 32 34 25 22 20 18 18 16 13 12 7 12 36 27 25